Content
SEND FEEDBACK

Daily
Averages
Monthly
Summary
United States of America

BROWNSVILLE, TENNESSEE


Home > North America > United States > Tennessee
Elevation: 369 feet     Latitude: 35 35N     Longitude: 089 15W

WEATHER
 
SELECT A DAY
Number of Records: 213,119;   Date Range: 1/1/95 - 12/18/14
 
SHARE

PRINT THIS DATA

[ ← Previous Day ]
WEATHER ALMANAC - JANUARY 31, 2013
[ Next Day → ]
[ °C ]   °F
Weather ElementAverageHighLow
Temperature37.2 °F51.1 °F (3:53 pm)27 °F (6:53 am)
Dewpoint26.4 °F33.8 °F (9:10 pm)21.9 °F (2:53 am)
Humidity68 %93 % (10:12 pm)38 % (3:53 pm)
Barometer30.15 in30.30 in (10:53 pm)30.03 in (1:53 am)
Wind Speed12.5 mph21.9 mph (9:44 pm)
Wind Gust29.9 mph (9:44 pm)
Weather ElementAverage
Visibility8.3 mi
Wind DirectionWNW (279.6 °)

Weather ElementTotal
Precipitation---
Heating Degree Days26 (Base 65)
Averaged from 25 records on January 31, 2013
WEATHER CONDITIONS BREAKOUT
WIND DIRECTION BREAKOUT
WEATHER BY HOUR - JANUARY 31, 2013
[ °C ]   °F
Local TimeTemperatureDewpointHumidityBarometerVisibilityWind DirectionWind SpeedGust SpeedPrecipitationEventsConditions
1:53 AM33.1 °F23.0 °F66 %30.03 in10.0 miWest (280°)12.7 mphOvercast
2:53 AM30.9 °F21.9 °F69 %30.04 in10.0 miWest (270°)10.4 mphClear
3:53 AM30.0 °F21.9 °F72 %30.04 in10.0 miWest (270°)6.9 mphClear
4:53 AM30.0 °F21.9 °F72 %30.05 in10.0 miWSW (250°)6.9 mphClear
5:53 AM28.9 °F21.9 °F75 %30.09 in10.0 miWest (270°)6.9 mphClear
6:53 AM27.0 °F23.0 °F85 %30.13 in10.0 miWSW (250°)6.9 mphClear
7:53 AM30.0 °F24.1 °F79 %30.14 in10.0 miWSW (240°)6.9 mphClear
9:53 AM36.0 °F25.0 °F64 %30.17 in10.0 miWSW (250°)10.4 mphClear
10:53 AM39.0 °F25.0 °F57 %30.17 in10.0 miSW (230°)10.4 mphClear
11:53 AM42.1 °F25.0 °F51 %30.15 in10.0 miWest (260°)10.4 mphClear
12:53 PM46.0 °F25.0 °F44 %30.11 in10.0 miWSW (250°)12.7 mphClear
1:53 PM48.9 °F25.0 °F39 %30.09 in10.0 miWSW (250°)15.0 mphClear
2:53 PM50.0 °F26.1 °F39 %30.05 in10.0 miWSW (240°)13.8 mph19.6 mphClear
3:53 PM51.1 °F26.1 °F38 %30.07 in10.0 miWest (260°)13.8 mphClear
4:53 PM50.0 °F27.0 °F41 %30.08 in10.0 miWest (270°)11.5 mphClear
6:53 PM46.0 °F32.0 °F58 %30.10 in10.0 miWSW (250°)5.8 mphOvercast
7:53 PM46.9 °F33.1 °F59 %30.14 in10.0 miNW (310°)17.3 mph21.9 mph0.00 inOvercast
8:53 PM37.0 °F33.1 °F86 %30.22 in10.0 miNNW (340°)17.3 mph28.8 mph0.00 inRainLight Rain
9:10 PM37.4 °F33.8 °F87 %30.21 in10.0 miNNW (340°)13.8 mph0.00 inOvercast
9:44 PM33.8 °F30.2 °F87 %30.25 in1.8 miNW (310°)21.9 mph29.9 mph0.00 inSnowLight Snow
9:53 PM32.0 °F30.0 °F92 %30.27 in1.0 miNW (310°)18.4 mph26.5 mph0.00 inSnowLight Snow
10:12 PM32.0 °F30.2 °F93 %30.26 in0.8 miNW (310°)13.8 mph0.00 inSnowLight Snow
10:53 PM30.9 °F27.0 °F85 %30.30 in1.2 miNNW (330°)20.7 mph26.5 mph0.00 inSnowLight Snow
10:59 PM30.2 °F26.6 °F86 %30.30 in3.0 miNW (320°)15.0 mph26.5 mph0.00 inSnowLight Snow
11:22 PM30.2 °F23.0 °F75 %30.30 in10.0 miNNW (330°)13.8 mph0.00 inOvercast
Hourly data recorded from KMKL, located miles away from Brownsville, Tennessee







STORIES FROM OUR PARTNERS